Time,TemperatureF,DewpointF,PressureIn,WindDirection,WindDirectionDegrees,WindSpeedMPH,WindSpeedGustMPH,Humidity,HourlyPrecipIn,Conditions,Clouds,dailyrainin,SoftwareType,DateUTC
2013-03-19 00:02:00,25.8,17.0,30.07,West,272,2.0,5.0,68,0.00,,,0.07,weatherlink.com 1.10,2013-03-19 05:02:00,
2013-03-19 00:17:00,25.6,17.0,30.07,WNW,296,5.0,6.0,69,0.00,,,0.07,weatherlink.com 1.10,2013-03-19 05:17:00,
2013-03-19 00:32:00,25.4,17.0,30.08,WNW,296,3.0,6.0,70,0.00,,,0.07,weatherlink.com 1.10,2013-03-19 05:32:00,
2013-03-19 00:47:00,25.3,17.0,30.09,WNW,293,3.0,6.0,71,0.00,,,0.07,weatherlink.com 1.10,2013-03-19 05:47:00,
2013-03-19 01:02:00,25.0,17.0,30.09,WNW,300,5.0,6.0,71,0.00,,,0.00,weatherlink.com 1.10,2013-03-19 06:02:00,
2013-03-19 01:17:00,24.8,16.0,30.09,WNW,298,4.0,7.0,70,0.00,,,0.00,weatherlink.com 1.10,2013-03-19 06:17:00,
2013-03-19 01:32:00,24.7,16.0,30.09,WNW,299,4.0,6.0,69,0.00,,,0.00,weatherlink.com 1.10,2013-03-19 06:32:00,
2013-03-19 01:47:00,24.5,16.0,30.09,WNW,297,5.0,7.0,70,0.00,,,0.00,weatherlink.com 1.10,2013-03-19 06:47:00,
2013-03-19 02:02:00,24.1,16.0,30.10,NW,326,8.0,8.0,71,0.00,,,0.00,weatherlink.com 1.10,2013-03-19 07:02:00,
2013-03-19 02:17:00,23.5,16.0,30.10,NW,314,5.0,10.0,72,0.00,,,0.00,weatherlink.com 1.10,2013-03-19 07:17:00,
2013-03-19 02:32:00,23.0,16.0,30.11,NW,304,4.0,9.0,74,0.00,,,0.00,weatherlink.com 1.10,2013-03-19 07:32:00,
2013-03-19 02:47:00,22.7,16.0,30.12,NW,304,3.0,11.0,76,0.00,,,0.00,weatherlink.com 1.10,2013-03-19 07:47:00,
2013-03-19 03:02:00,22.2,16.0,30.13,WNW,294,2.0,5.0,77,0.00,,,0.00,weatherlink.com 1.10,2013-03-19 08:02:00,
2013-03-19 03:17:00,21.8,15.0,30.13,WNW,295,7.0,9.0,75,0.00,,,0.00,weatherlink.com 1.10,2013-03-19 08:17:00,
2013-03-19 03:32:00,21.3,15.0,30.12,WNW,289,6.0,8.0,76,0.00,,,0.00,weatherlink.com 1.10,2013-03-19 08:32:00,
2013-03-19 03:48:00,20.9,14.0,30.11,NW,311,4.0,5.0,76,0.00,,,0.00,weatherlink.com 1.10,2013-03-19 08:48:00,
2013-03-19 04:03:00,20.5,14.0,30.12,NW,311,2.0,3.0,77,0.00,,,0.00,weatherlink.com 1.10,2013-03-19 09:03:00,
2013-03-19 04:18:00,20.4,15.0,30.12,WNW,297,3.0,6.0,78,0.00,,,0.00,weatherlink.com 1.10,2013-03-19 09:18:00,
2013-03-19 04:33:00,20.3,14.0,30.12,WNW,297,5.0,8.0,77,0.00,,,0.00,weatherlink.com 1.10,2013-03-19 09:33:00,
2013-03-19 04:48:00,20.2,14.0,30.12,WNW,303,1.0,7.0,76,0.00,,,0.00,weatherlink.com 1.10,2013-03-19 09:48:00,
2013-03-19 05:03:00,20.1,13.0,30.12,NW,308,2.0,6.0,74,0.00,,,0.00,weatherlink.com 1.10,2013-03-19 10:03:00,
2013-03-19 05:18:00,20.0,13.0,30.12,NW,308,0.0,5.0,74,0.00,,,0.00,weatherlink.com 1.10,2013-03-19 10:18:00,
2013-03-19 05:33:00,19.9,13.0,30.12,NW,313,3.0,5.0,75,0.00,,,0.00,weatherlink.com 1.10,2013-03-19 10:33:00,
2013-03-19 05:48:00,19.7,13.0,30.13,NW,309,3.0,6.0,75,0.00,,,0.00,weatherlink.com 1.10,2013-03-19 10:48:00,
2013-03-19 06:04:00,19.0,13.0,30.14,WNW,300,3.0,5.0,77,0.00,,,0.00,weatherlink.com 1.10,2013-03-19 11:04:00,
2013-03-19 06:18:00,19.1,13.0,30.14,NW,311,2.0,5.0,77,0.00,,,0.00,weatherlink.com 1.10,2013-03-19 11:18:00,
2013-03-19 06:33:00,19.3,12.0,30.14,NW,305,2.0,4.0,74,0.00,,,0.00,weatherlink.com 1.10,2013-03-19 11:33:00,
2013-03-19 06:48:00,19.2,12.0,30.15,WNW,298,1.0,4.0,73,0.00,,,0.00,weatherlink.com 1.10,2013-03-19 11:48:00,
2013-03-19 07:03:00,19.1,12.0,30.16,WNW,298,1.0,4.0,74,0.00,,,0.00,weatherlink.com 1.10,2013-03-19 12:03:00,
2013-03-19 07:18:00,18.9,12.0,30.17,WNW,286,2.0,4.0,74,0.00,,,0.00,weatherlink.com 1.10,2013-03-19 12:18:00,
2013-03-19 07:33:00,18.7,12.0,30.17,WNW,296,1.0,4.0,75,0.00,,,0.00,weatherlink.com 1.10,2013-03-19 12:33:00,
2013-03-19 07:48:00,19.1,12.0,30.17,North,5,3.0,7.0,75,0.00,,,0.00,weatherlink.com 1.10,2013-03-19 12:48:00,
2013-03-19 08:03:00,19.5,12.0,30.17,NNW,332,2.0,9.0,72,0.00,,,0.00,weatherlink.com 1.10,2013-03-19 13:03:00,
2013-03-19 08:18:00,19.8,12.0,30.18,NW,320,0.0,7.0,71,0.00,,,0.00,weatherlink.com 1.10,2013-03-19 13:18:00,
2013-03-19 08:33:00,20.2,12.0,30.18,NNE,19,0.0,3.0,71,0.00,,,0.00,weatherlink.com 1.10,2013-03-19 13:33:00,
2013-03-19 08:48:00,21.0,12.0,30.20,NNE,13,5.0,7.0,69,0.00,,,0.00,weatherlink.com 1.10,2013-03-19 13:48:00,
2013-03-19 09:03:00,21.3,13.0,30.20,NNW,346,0.0,3.0,69,0.00,,,0.00,weatherlink.com 1.10,2013-03-19 14:03:00,
2013-03-19 09:18:00,21.9,13.0,30.21,NNW,346,0.0,2.0,69,0.00,,,0.00,weatherlink.com 1.10,2013-03-19 14:18:00,
2013-03-19 09:33:00,22.6,13.0,30.21,NNW,348,0.0,0.0,66,0.00,,,0.00,weatherlink.com 1.10,2013-03-19 14:33:00,
2013-03-19 09:48:00,23.2,14.0,30.21,South,173,2.0,4.0,67,0.00,,,0.00,weatherlink.com 1.10,2013-03-19 14:48:00,
2013-03-19 10:03:00,24.7,14.0,30.23,South,171,0.0,3.0,64,0.00,,,0.00,weatherlink.com 1.10,2013-03-19 15:03:00,
2013-03-19 10:18:00,25.8,15.0,30.23,South,184,0.0,0.0,63,0.00,,,0.00,weatherlink.com 1.10,2013-03-19 15:18:00,
2013-03-19 10:33:00,26.7,16.0,30.23,South,184,0.0,2.0,63,0.00,,,0.00,weatherlink.com 1.10,2013-03-19 15:33:00,
2013-03-19 10:48:00,26.5,15.0,30.23,NW,320,0.0,4.0,62,0.00,,,0.00,weatherlink.com 1.10,2013-03-19 15:48:00,
2013-03-19 11:18:00,28.6,16.0,30.23,South,190,0.0,4.0,60,0.00,,,0.00,weatherlink.com 1.10,2013-03-19 16:18:00,
2013-03-19 11:34:00,29.8,15.0,30.24,SW,228,5.0,7.0,55,0.00,,,0.00,weatherlink.com 1.10,2013-03-19 16:34:00,
2013-03-19 11:49:00,30.5,16.0,30.23,SSW,196,0.0,5.0,54,0.00,,,0.00,weatherlink.com 1.10,2013-03-19 16:49:00,
2013-03-19 12:04:00,31.2,16.0,30.23,SSW,193,3.0,6.0,53,0.00,,,0.00,weatherlink.com 1.10,2013-03-19 17:04:00,
2013-03-19 12:34:00,33.4,18.0,30.22,SSW,197,7.0,7.0,53,0.00,,,0.00,weatherlink.com 1.10,2013-03-19 17:34:00,
2013-03-19 12:49:00,34.5,18.0,30.22,SW,218,5.0,10.0,52,0.00,,,0.00,weatherlink.com 1.10,2013-03-19 17:49:00,
2013-03-19 13:04:00,34.9,18.0,30.21,SW,221,6.0,13.0,50,0.00,,,0.00,weatherlink.com 1.10,2013-03-19 18:04:00,
2013-03-19 13:19:00,35.9,18.0,30.21,South,189,10.0,11.0,49,0.00,,,0.00,weatherlink.com 1.10,2013-03-19 18:19:00,
2013-03-19 13:34:00,36.5,17.0,30.21,South,182,12.0,13.0,45,0.00,,,0.00,weatherlink.com 1.10,2013-03-19 18:34:00,
2013-03-19 13:49:00,37.8,19.0,30.21,SW,216,5.0,11.0,46,0.00,,,0.00,weatherlink.com 1.10,2013-03-19 18:49:00,
2013-03-19 14:04:00,40.1,19.0,30.20,WSW,238,13.0,17.0,42,0.00,,,0.00,weatherlink.com 1.10,2013-03-19 19:04:00,
2013-03-19 14:19:00,40.9,18.0,30.20,SSW,213,15.0,20.0,39,0.00,,,0.00,weatherlink.com 1.10,2013-03-19 19:19:00,
2013-03-19 14:34:00,41.5,20.0,30.19,SW,227,10.0,19.0,43,0.00,,,0.00,weatherlink.com 1.10,2013-03-19 19:34:00,
2013-03-19 14:49:00,41.9,22.0,30.18,SW,232,16.0,20.0,46,0.00,,,0.00,weatherlink.com 1.10,2013-03-19 19:49:00,
2013-03-19 15:04:00,43.0,23.0,30.17,WSW,255,8.0,19.0,46,0.00,,,0.00,weatherlink.com 1.10,2013-03-19 20:04:00,
2013-03-19 15:19:00,43.7,23.0,30.16,WSW,244,4.0,20.0,44,0.00,,,0.00,weatherlink.com 1.10,2013-03-19 20:19:00,
2013-03-19 15:34:00,45.1,24.0,30.16,South,183,6.0,19.0,44,0.00,,,0.00,weatherlink.com 1.10,2013-03-19 20:34:00,
2013-03-19 15:49:00,45.7,24.0,30.16,SW,224,4.0,16.0,43,0.00,,,0.00,weatherlink.com 1.10,2013-03-19 20:49:00,
2013-03-19 16:04:00,46.4,25.0,30.15,SW,230,7.0,16.0,43,0.00,,,0.00,weatherlink.com 1.10,2013-03-19 21:04:00,
2013-03-19 16:19:00,47.2,26.0,30.15,WSW,257,7.0,12.0,44,0.00,,,0.00,weatherlink.com 1.10,2013-03-19 21:19:00,
2013-03-19 16:34:00,47.1,25.0,30.15,WSW,255,5.0,11.0,43,0.00,,,0.00,weatherlink.com 1.10,2013-03-19 21:34:00,
2013-03-19 16:49:00,47.7,26.0,30.15,WSW,246,7.0,15.0,43,0.00,,,0.00,weatherlink.com 1.10,2013-03-19 21:49:00,
2013-03-19 17:04:00,46.7,23.0,30.16,West,269,11.0,21.0,39,0.00,,,0.00,weatherlink.com 1.10,2013-03-19 22:04:00,
2013-03-19 17:19:00,47.6,22.0,30.16,West,277,10.0,30.0,36,0.00,,,0.00,weatherlink.com 1.10,2013-03-19 22:19:00,
2013-03-19 17:34:00,46.8,20.0,30.17,WNW,287,9.0,27.0,35,0.00,,,0.00,weatherlink.com 1.10,2013-03-19 22:34:00,
2013-03-19 17:49:00,46.5,21.0,30.18,WNW,292,13.0,23.0,36,0.00,,,0.00,weatherlink.com 1.10,2013-03-19 22:49:00,
2013-03-19 18:04:00,45.3,20.0,30.19,West,280,15.0,27.0,37,0.00,,,0.00,weatherlink.com 1.10,2013-03-19 23:04:00,
2013-03-19 18:19:00,44.2,18.0,30.19,West,279,14.0,26.0,35,0.00,,,0.00,weatherlink.com 1.10,2013-03-19 23:19:00,
2013-03-19 18:34:00,43.2,18.0,30.20,WNW,302,16.0,26.0,37,0.00,,,0.00,weatherlink.com 1.10,2013-03-19 23:34:00,
2013-03-19 18:49:00,42.7,22.0,30.20,NW,315,11.0,16.0,44,0.00,,,0.00,weatherlink.com 1.10,2013-03-19 23:49:00,
2013-03-19 19:04:00,40.0,29.0,30.21,NNW,338,12.0,15.0,64,0.00,,,0.00,weatherlink.com 1.10,2013-03-20 00:04:00,
2013-03-19 19:19:00,38.9,28.0,30.22,North,355,6.0,11.0,64,0.00,,,0.00,weatherlink.com 1.10,2013-03-20 00:19:00,
2013-03-19 19:49:00,37.0,26.0,30.22,NNW,343,4.0,11.0,65,0.00,,,0.00,weatherlink.com 1.10,2013-03-20 00:49:00,
2013-03-19 20:04:00,36.4,26.0,30.23,North,5,8.0,9.0,65,0.00,,,0.00,weatherlink.com 1.10,2013-03-20 01:04:00,
2013-03-19 20:20:00,35.9,25.0,30.25,North,355,7.0,15.0,65,0.00,,,0.00,weatherlink.com 1.10,2013-03-20 01:20:00,
2013-03-19 20:35:00,34.9,24.0,30.26,NNW,344,5.0,12.0,65,0.00,,,0.00,weatherlink.com 1.10,2013-03-20 01:35:00,
2013-03-19 20:50:00,33.4,23.0,30.27,North,5,11.0,19.0,67,0.00,,,0.00,weatherlink.com 1.10,2013-03-20 01:50:00,
2013-03-19 21:05:00,32.3,22.0,30.28,NNE,13,11.0,15.0,67,0.00,,,0.00,weatherlink.com 1.10,2013-03-20 02:05:00,
2013-03-19 21:20:00,31.7,22.0,30.28,North,5,5.0,16.0,67,0.00,,,0.00,weatherlink.com 1.10,2013-03-20 02:20:00,
2013-03-19 21:35:00,31.0,22.0,30.29,North,355,4.0,14.0,70,0.00,,,0.00,weatherlink.com 1.10,2013-03-20 02:35:00,
2013-03-19 21:50:00,30.0,22.0,30.30,North,355,6.0,18.0,71,0.00,,,0.00,weatherlink.com 1.10,2013-03-20 02:50:00,
2013-03-19 22:05:00,29.5,22.0,30.31,NW,325,15.0,18.0,72,0.00,,,0.00,weatherlink.com 1.10,2013-03-20 03:05:00,
2013-03-19 22:20:00,28.8,19.0,30.32,WNW,303,7.0,19.0,68,0.00,,,0.00,weatherlink.com 1.10,2013-03-20 03:20:00,
2013-03-19 22:35:00,28.0,18.0,30.33,NW,316,5.0,22.0,66,0.00,,,0.00,weatherlink.com 1.10,2013-03-20 03:35:00,
2013-03-19 22:50:00,27.3,17.0,30.33,NW,322,19.0,22.0,65,0.00,,,0.00,weatherlink.com 1.10,2013-03-20 03:50:00,
2013-03-19 23:05:00,26.6,18.0,30.34,NW,311,17.0,20.0,69,0.00,,,0.00,weatherlink.com 1.10,2013-03-20 04:05:00,
2013-03-19 23:20:00,25.5,17.0,30.34,WNW,284,17.0,23.0,70,0.00,,,0.00,weatherlink.com 1.10,2013-03-20 04:20:00,
2013-03-19 23:35:00,24.8,17.0,30.35,WNW,290,7.0,21.0,71,0.00,,,0.00,weatherlink.com 1.10,2013-03-20 04:35:00,
2013-03-19 23:50:00,23.6,16.0,30.36,WNW,291,10.0,22.0,73,0.00,,,0.00,weatherlink.com 1.10,2013-03-20 04:50:00,